Wind_Speed
4 5 5 8 3 8 12 13 23 29 24 22 29 20 16 16 12 11 20 21 18 15 13 12 12 11 10 11 11 11 11 11 10 11 10 10 10 10 11 11 11 11 12 11 11 12 11 11 11
1 4 2 7 7 18 17 21 22 23 25 21 22 17 17 13 7 22 21 22 18 15 13 13 12 11 10 10 11 11 10 10 10 10 10 12 12 10 11 10 10 10 10 10 10 10 10 10 11
2 13 16 4 6 15 17 14 15 20 21 21 23 14 13 12 17 18 19 21 18 15 14 13 11 12 11 11 10 11 11 11 11 11 11 11 11 9 10 10 10 9 8 9 10 10 11 9 10
6 12 6 3 13 16 20 16 20 26 20 17 11 10 14 17 20 17 18 19 17 15 14 13 12 11 11 11 10 10 11 11 11 10 10 11 11 10 12 11 10 10 9 9 11 12 11 11 10
12 17 13 9 20 24 21 13 19 15 18 17 7 16 19 20 19 19 16 16 16 15 14 12 11 11 11 10 10 11 11 11 11 10 10 11 11 11 12 12 12 10 8 7 7 10 9 10 10
9 18 11 8 21 28 25 13 20 10 16 15 15 17 20 19 19 18 16 18 15 14 13 12 11 12 11 11 11 12 11 10 9 9 10 11 11 10 14 15 13 10 8 6 6 6 5 4 5
21 15 18 13 19 11 19 14 8 8 14 14 10 12 19 21 20 19 16 21 15 14 12 12 11 12 12 12 12 11 10 9 8 8 8 10 11 12 7 10 12 11 9 7 7 7 3 1 3
17 23 21 6 12 9 21 9 5 4 12 12 6 11 15 20 20 19 15 18 17 14 11 11 11 12 13 13 12 12 11 9 11 9 9 8 5 5 5 6 9 9 8 10 9 11 14 14 9
11 9 15 7 7 12 17 8 9 6 7 7 6 9 11 15 17 17 15 17 16 15 13 11 11 12 13 13 12 12 11 11 11 11 6 10 12 8 11 14 14 9 13 13 9 12 13 13 12
10 15 14 8 5 15 16 8 12 10 6 8 10 8 16 16 16 15 15 14 16 16 13 11 12 11 14 13 12 10 13 11 12 11 14 17 17 17 17 15 13 8 12 13 14 14 18 15 14
9 6 9 9 14 10 18 8 11 8 6 7 5 12 19 20 19 17 17 13 12 14 15 12 13 13 13 13 10 11 9 11 12 16 13 12 12 18 19 22 18 11 14 18 17 14 18 19 18
10 4 12 20 19 19 9 13 9 8 9 9 1 13 19 23 20 16 16 14 13 14 15 12 10 11 13 11 11 10 6 12 13 11 13 15 17 20 20 24 19 19 20 20 18 17 16 17 11
4 12 0 13 11 10 10 9 4 3 5 5 4 16 22 23 20 18 15 12 15 15 11 12 10 11 8 10 10 9 10 11 9 12 19 18 14 17 18 21 24 17 20 18 16 15 14 16 10
3 5 6 11 6 15 17 13 4 3 6 4 10 18 22 21 19 18 17 14 12 15 11 11 11 8 8 6 8 9 11 10 14 15 19 12 18 23 22 20 15 13 16 17 15 13 9 14 13
9 6 3 6 10 13 14 7 9 7 11 9 11 17 22 23 20 17 17 15 13 14 12 12 12 11 10 12 8 5 7 13 18 16 14 17 16 19 20 20 17 17 20 22 20 18 15 12 12
14 8 10 6 17 13 12 11 8 16 18 16 11 15 23 22 23 20 20 19 17 14 15 15 14 12 12 11 7 6 10 15 18 17 15 17 17 17 19 19 21 20 22 22 23 21 19 14 10
14 18 18 14 10 9 13 12 11 19 21 15 15 15 25 27 23 21 22 23 20 14 16 17 16 12 12 11 8 9 13 16 19 18 16 17 13 17 17 20 23 23 23 22 23 23 23 18 12
7 4 1 17 16 10 24 21 16 17 26 19 18 15 20 30 24 24 25 21 21 15 18 17 17 14 14 14 11 12 14 12 20 17 16 16 16 17 19 21 22 21 22 22 23 24 27 25 20
21 8 10 17 19 24 23 29 25 18 26 21 23 13 20 23 27 27 26 25 24 18 19 17 16 16 16 15 12 11 15 14 15 16 15 15 14 18 19 21 23 22 22 23 25 28 30 30 24
25 14 9 16 11 18 23 25 43 26 15 15 23 23 21 23 28 29 26 28 25 22 21 19 15 16 16 17 15 14 16 19 16 14 14 14 13 15 17 19 20 21 21 21 23 26 28 30 31
28 23 8 17 6 8 28 26 34 25 22 21 20 28 25 20 29 31 33 30 25 23 24 21 18 17 17 19 17 14 16 19 15 14 14 12 12 13 15 17 18 19 19 20 21 23 25 27 28
31 25 26 17 16 34 15 9 32 29 30 28 22 30 26 23 24 32 31 31 29 25 26 23 20 21 19 20 17 15 15 17 16 16 12 11 10 10 12 14 16 17 18 19 19 20 21 23 24
33 28 31 32 29 32 24 18 25 36 35 30 26 18 27 26 28 28 29 29 26 27 27 25 23 23 22 22 20 19 19 17 17 16 13 9 8 7 10 13 17 19 20 21 20 19 18 18 20
33 33 30 31 30 21 26 26 17 43 32 29 21 22 18 21 32 31 28 28 29 25 27 29 26 26 25 24 23 22 21 19 18 17 12 7 4 3 7 13 16 19 21 22 22 20 19 17 18
35 34 23 13 12 6 22 26 3 22 35 32 16 32 27 23 22 31 30 29 31 30 29 30 29 28 27 27 26 25 22 20 19 14 10 5 3 5 10 14 17 19 20 21 21 21 19 15 16
37 37 23 7 6 12 19 1 7 15 21 17 11 27 31 32 27 25 24 25 26 34 28 32 31 30 29 29 29 27 25 23 19 14 10 4 2 8 10 14 16 19 20 20 21 22 20 17 15
39 39 34 32 37 16 7 9 7 7 16 24 18 35 36 37 33 31 22 23 23 31 30 34 33 32 31 31 31 30 27 25 21 15 10 5 3 6 10 14 16 19 18 20 20 21 22 18 14
37 36 30 33 11 9 5 9 8 11 19 21 11 28 41 36 36 29 24 25 26 27 27 32 34 34 33 33 33 32 29 26 22 17 11 6 3 6 10 14 16 17 17 19 21 20 21 19 16
38 38 41 24 29 6 4 7 19 17 21 26 22 21 47 36 30 25 26 24 24 24 28 32 35 37 37 37 36 34 31 27 23 17 13 8 5 4 8 12 15 16 16 18 23 22 22 19 17
38 36 41 31 22 28 27 10 9 12 12 29 29 11 42 39 26 24 27 25 25 26 29 32 35 38 38 38 39 37 33 28 23 19 15 11 6 5 8 11 14 16 16 19 23 23 25 22 18
Wind_Direction
7 24 114 126 124 107 121 111 135 131 122 124 149 160 148 130 136 139 153 141 148 148 145 141 134 128 120 112 107 99 98 88 88 85 84 78 73 75 79 78 76 75 79 84 86 86 82 78 75
22 340 200 156 131 113 107 122 126 138 137 145 145 145 141 129 151 147 151 143 146 151 144 137 130 123 114 111 104 101 95 94 93 88 81 72 66 63 69 70 75 76 79 82 83 82 77 80 87
175 85 104 358 153 121 127 136 139 153 144 153 148 159 151 145 150 155 144 147 151 150 143 133 128 122 121 114 108 103 99 93 87 77 73 64 58 59 68 66 66 72 76 74 72 67 69 73 82
351 20 358 49 132 129 135 147 136 147 145 150 135 145 156 156 152 149 144 154 142 149 137 129 123 119 114 110 103 95 96 89 83 79 68 68 68 64 63 62 59 57 60 71 73 46 55 55 47
65 61 40 39 117 116 127 120 141 145 146 166 153 127 133 138 148 157 153 141 148 142 130 125 120 117 109 104 98 95 91 89 84 81 77 77 77 75 73 61 53 48 47 55 49 36 52 39 34
39 32 20 74 126 127 140 110 142 161 166 150 138 129 139 143 158 156 162 134 146 133 127 125 124 118 112 107 100 93 91 85 88 92 96 96 78 72 97 71 66 54 45 39 30 32 13 10 45
73 13 348 344 146 156 149 119 128 129 149 157 162 153 148 153 164 173 169 137 140 136 134 133 132 120 116 110 102 98 94 95 87 79 89 98 79 63 64 49 63 57 51 57 62 39 5 178 114
323 22 345 295 182 77 150 114 67 120 124 148 182 202 173 174 169 176 160 147 139 140 145 143 138 126 124 111 102 97 93 75 67 58 53 62 72 62 104 55 56 63 52 42 29 29 41 68 78
277 7 350 336 239 103 137 124 135 116 144 132 157 171 184 177 176 168 155 152 141 150 155 145 136 133 123 114 111 109 92 83 73 63 31 68 69 74 81 66 76 63 53 44 34 33 47 54 63
234 316 344 316 205 135 119 137 138 143 151 151 186 197 187 180 179 166 155 146 149 163 149 147 129 140 132 121 122 115 95 77 71 64 46 40 55 51 55 55 66 57 67 55 62 58 75 64 67
275 182 60 156 139 114 116 126 156 139 168 241 227 184 174 173 181 168 158 154 149 160 151 148 133 137 139 135 138 115 82 71 66 67 51 58 64 69 67 65 65 56 59 63 70 66 66 73 61
317 178 86 111 132 130 113 154 177 174 282 252 324 182 170 171 175 171 167 163 176 161 148 142 148 140 146 144 155 110 112 95 64 53 66 67 65 72 76 76 63 68 66 61 63 60 56 57 43
75 124 306 126 133 98 160 150 155 305 216 238 213 178 167 173 177 172 168 173 181 153 170 149 135 162 151 156 135 118 93 88 66 67 69 93 106 92 80 76 70 57 56 61 52 60 55 56 42
330 276 99 165 154 142 126 123 278 142 303 307 170 171 168 169 178 173 172 170 158 175 165 155 143 158 134 144 128 135 115 103 93 86 86 86 84 73 77 75 60 82 60 52 50 36 42 44 44
323 203 284 174 126 169 175 159 152 188 234 267 187 173 175 173 178 180 162 165 195 190 165 167 161 146 147 152 147 124 91 109 109 89 76 66 65 82 72 72 69 53 56 51 41 36 36 33 37
312 228 324 138 162 172 234 193 213 191 220 238 209 195 183 189 180 185 163 186 202 185 166 173 166 154 159 164 145 149 109 119 110 100 86 75 84 78 70 69 72 64 56 51 46 41 37 30 14
292 259 271 244 187 240 224 211 188 190 213 224 213 205 186 196 187 183 186 187 207 190 174 183 175 163 167 165 143 139 117 115 123 105 90 91 76 68 73 71 69 58 54 54 47 48 46 38 29
275 230 256 256 230 258 276 243 202 196 211 226 208 215 198 201 193 185 198 198 209 194 183 191 182 173 170 163 157 146 132 137 107 101 93 81 81 79 72 70 64 58 53 48 44 40 42 42 46
272 246 207 279 236 291 272 252 228 210 202 216 203 221 210 206 190 197 201 199 210 200 190 197 182 178 171 168 164 155 139 137 114 105 96 84 73 71 63 56 55 51 46 43 37 33 34 40 47
268 253 287 294 248 297 253 253 239 217 251 215 201 211 210 202 202 199 200 202 209 204 192 202 181 181 179 180 176 174 160 137 118 111 104 94 81 69 59 50 46 41 37 34 34 28 28 29 37
261 240 236 200 181 252 270 266 238 217 218 213 207 210 220 205 205 203 199 212 205 202 190 206 189 186 188 187 185 177 162 136 133 127 114 101 86 71 58 45 36 29 22 19 20 20 21 22 22
255 251 233 258 220 242 207 236 211 213 208 220 214 201 220 209 206 216 209 212 212 204 193 205 198 195 194 195 182 177 165 153 147 135 124 118 97 74 53 35 24 15 10 4 4 6 8 12 17
245 254 248 242 229 275 253 218 222 216 202 219 228 219 218 222 216 212 214 217 214 202 196 200 200 196 198 195 184 184 176 165 156 152 145 125 96 63 36 22 10 11 8 3 1 356 355 357 6
244 250 262 266 267 238 252 264 236 199 216 214 227 247 231 233 223 224 219 219 222 205 191 196 197 195 198 193 188 186 180 172 168 157 147 138 112 75 17 11 13 9 4 2 358 356 348 347 352
241 247 249 273 274 221 250 262 10 209 199 188 273 239 246 249 244 221 213 208 214 219 193 191 195 195 196 192 187 186 186 177 169 163 160 155 136 40 20 11 10 6 1 360 2 357 349 343 343
238 238 229 227 232 244 255 201 134 154 182 186 230 240 233 241 250 239 211 204 218 218 200 191 195 195 193 193 187 188 188 182 177 177 174 181 5 13 16 10 7 360 360 1 3 360 354 348 345
234 240 241 239 254 272 135 134 135 173 207 235 283 194 221 226 241 240 220 211 214 209 205 193 193 196 194 193 191 189 189 185 182 185 186 202 333 352 7 8 7 358 360 358 0 358 355 354 349
234 236 239 238 237 252 201 188 195 259 264 231 236 208 209 221 230 234 227 216 208 208 203 196 192 198 193 194 194 192 190 188 190 193 197 216 275 340 355 360 2 356 358 354 357 356 357 357 352
232 237 236 244 239 214 175 240 237 241 251 224 232 273 209 215 220 228 226 219 208 206 205 198 193 196 194 194 194 195 192 192 195 200 208 224 260 315 347 353 355 353 351 351 352 352 358 1 353
236 235 230 233 246 242 251 248 188 235 235 236 252 250 217 214 217 221 225 222 209 204 208 202 195 197 194 194 195 196 196 197 198 205 215 228 258 311 338 342 349 350 349 353 352 347 355 3 357
Height
3160 3158 3157 3154 3155 3156 3155 3155 3156 3157 3163 3164 3168 3170 3171 3170 3171 3175 3173 3177 3179 3182 3183 3185 3186 3188 3189 3190 3190 3191 3192 3192 3192 3192 3192 3192 3192 3192 3191 3191 3192 3192 3191 3191 3192 3192 3192 3192 3193
3159 3155 3156 3154 3154 3157 3159 3159 3160 3161 3161 3166 3170 3172 3171 3170 3170 3171 3173 3177 3180 3183 3184 3186 3187 3189 3191 3191 3192 3193 3193 3193 3194 3194 3194 3194 3193 3193 3193 3193 3193 3193 3193 3193 3194 3194 3194 3194 3195
3155 3159 3152 3154 3156 3157 3160 3159 3160 3163 3165 3169 3169 3172 3171 3171 3172 3173 3175 3178 3181 3183 3185 3187 3189 3190 3191 3193 3193 3193 3194 3195 3196 3196 3196 3196 3196 3196 3195 3195 3194 3194 3194 3195 3195 3196 3196 3196 3197
3158 3155 3155 3159 3156 3160 3162 3161 3162 3163 3166 3171 3171 3170 3171 3172 3174 3177 3178 3180 3183 3185 3186 3189 3191 3191 3193 3194 3195 3195 3196 3197 3197 3197 3198 3198 3198 3198 3197 3197 3196 3196 3196 3196 3197 3197 3198 3198 3199
3164 3157 3157 3158 3160 3158 3164 3165 3165 3165 3166 3169 3172 3170 3172 3174 3176 3177 3180 3183 3185 3186 3187 3190 3192 3193 3194 3195 3196 3197 3198 3199 3199 3198 3198 3199 3199 3199 3199 3199 3199 3198 3197 3198 3198 3198 3200 3200 3200
3164 3163 3158 3159 3159 3161 3166 3163 3166 3166 3166 3169 3173 3171 3173 3175 3177 3179 3180 3184 3186 3187 3189 3191 3193 3194 3195 3197 3199 3200 3200 3199 3198 3198 3198 3198 3199 3199 3199 3199 3199 3199 3198 3198 3199 3199 3199 3199 3199
3162 3164 3165 3158 3161 3159 3164 3164 3168 3167 3168 3170 3174 3173 3173 3175 3177 3178 3181 3184 3187 3188 3190 3193 3195 3196 3198 3199 3201 3202 3201 3199 3199 3199 3200 3199 3199 3201 3201 3200 3199 3199 3199 3199 3199 3198 3196 3196 3199
3162 3165 3166 3161 3162 3158 3161 3165 3166 3169 3171 3172 3173 3174 3172 3174 3177 3179 3181 3184 3188 3190 3192 3194 3196 3198 3200 3201 3203 3203 3202 3201 3203 3204 3207 3206 3202 3197 3199 3200 3199 3200 3199 3200 3200 3200 3199 3200 3202
3170 3169 3167 3164 3160 3155 3162 3166 3169 3171 3172 3174 3174 3175 3175 3176 3178 3181 3182 3184 3188 3190 3194 3196 3198 3200 3201 3203 3204 3203 3203 3204 3205 3208 3205 3202 3205 3205 3203 3201 3200 3201 3202 3201 3200 3201 3202 3202 3201
3176 3171 3169 3163 3163 3161 3163 3167 3169 3171 3174 3172 3170 3174 3175 3177 3180 3182 3184 3185 3188 3191 3194 3197 3199 3201 3202 3203 3205 3205 3207 3207 3206 3206 3207 3206 3206 3205 3202 3201 3203 3203 3204 3202 3201 3201 3203 3202 3201
3171 3169 3165 3161 3166 3167 3165 3168 3171 3171 3173 3174 3172 3173 3174 3177 3180 3183 3185 3188 3189 3192 3195 3196 3200 3202 3203 3204 3206 3208 3208 3209 3210 3208 3209 3208 3207 3204 3205 3205 3204 3206 3205 3203 3203 3203 3203 3203 3203
3167 3166 3166 3165 3170 3172 3172 3173 3171 3174 3172 3172 3173 3174 3175 3177 3180 3183 3185 3188 3190 3191 3194 3197 3200 3203 3203 3204 3207 3208 3209 3212 3213 3212 3211 3212 3213 3210 3207 3205 3208 3208 3207 3205 3205 3205 3204 3203 3201
3168 3170 3171 3169 3171 3174 3173 3174 3173 3173 3170 3168 3171 3172 3175 3178 3181 3184 3186 3188 3190 3191 3194 3198 3201 3204 3203 3206 3207 3209 3213 3213 3214 3214 3213 3211 3208 3209 3210 3210 3209 3210 3208 3206 3205 3204 3204 3201 3203
3168 3168 3171 3170 3171 3174 3172 3173 3171 3171 3166 3168 3171 3173 3176 3178 3181 3184 3185 3188 3189 3192 3195 3199 3202 3204 3206 3207 3208 3212 3214 3215 3216 3216 3215 3213 3217 3214 3212 3212 3213 3213 3211 3209 3207 3207 3205 3203 3203
3168 3170 3170 3171 3171 3173 3171 3174 3172 3171 3168 3168 3170 3173 3176 3179 3180 3184 3185 3189 3191 3193 3197 3200 3203 3205 3207 3208 3209 3211 3212 3215 3217 3217 3216 3218 3218 3218 3216 3215 3214 3215 3213 3210 3209 3208 3206 3205 3204
3165 3168 3169 3170 3170 3171 3169 3171 3170 3169 3166 3167 3168 3171 3174 3177 3180 3184 3185 3190 3191 3194 3198 3201 3204 3206 3208 3209 3210 3212 3213 3216 3217 3219 3218 3219 3220 3219 3218 3218 3217 3217 3214 3213 3212 3210 3209 3206 3204
3164 3165 3170 3168 3170 3170 3168 3168 3168 3167 3165 3163 3165 3167 3172 3174 3178 3182 3185 3188 3189 3194 3198 3201 3204 3207 3209 3211 3212 3214 3214 3217 3218 3220 3220 3222 3222 3222 3222 3220 3218 3218 3216 3215 3214 3212 3210 3208 3205
3163 3161 3166 3167 3166 3166 3168 3166 3166 3164 3163 3163 3162 3164 3168 3171 3176 3181 3184 3188 3188 3193 3197 3200 3204 3207 3209 3212 3213 3215 3215 3217 3218 3221 3222 3223 3225 3225 3225 3223 3220 3219 3218 3217 3216 3214 3212 3209 3205
3163 3159 3160 3163 3163 3163 3162 3164 3162 3161 3161 3160 3161 3161 3163 3167 3174 3179 3182 3186 3187 3191 3196 3198 3202 3206 3209 3212 3214 3216 3216 3218 3219 3221 3223 3224 3226 3225 3224 3223 3222 3222 3220 3219 3217 3214 3213 3211 3207
3157 3156 3158 3158 3162 3161 3154 3156 3157 3156 3156 3156 3158 3159 3161 3165 3170 3175 3178 3182 3185 3189 3194 3197 3202 3205 3208 3212 3214 3215 3216 3217 3220 3222 3224 3226 3226 3226 3226 3225 3224 3223 3222 3221 3218 3216 3214 3211 3210
3151 3154 3154 3157 3161 3156 3153 3153 3156 3153 3154 3156 3158 3158 3162 3164 3166 3171 3174 3177 3182 3187 3192 3195 3200 3204 3208 3210 3213 3216 3218 3218 3221 3223 3225 3226 3227 3228 3228 3227 3225 3225 3223 3221 3219 3217 3215 3212 3209
3146 3149 3149 3148 3157 3151 3148 3150 3147 3149 3150 3152 3156 3157 3157 3162 3166 3168 3172 3174 3178 3184 3189 3193 3198 3203 3206 3209 3213 3216 3218 3219 3221 3223 3226 3228 3228 3229 3229 3228 3227 3226 3225 3222 3220 3217 3215 3212 3210
3142 3142 3145 3147 3147 3146 3142 3142 3136 3142 3146 3146 3152 3158 3159 3159 3163 3166 3170 3172 3176 3181 3186 3190 3195 3200 3203 3207 3211 3215 3217 3220 3221 3224 3227 3228 3229 3230 3230 3229 3228 3226 3224 3222 3220 3218 3216 3213 3211
3139 3140 3139 3141 3144 3140 3142 3136 3133 3133 3136 3144 3152 3157 3160 3159 3158 3163 3168 3172 3175 3178 3182 3187 3192 3197 3200 3205 3209 3213 3216 3219 3222 3224 3226 3228 3230 3231 3230 3230 3228 3226 3224 3222 3219 3217 3214 3212 3209
3132 3135 3135 3138 3135 3134 3131 3132 3131 3128 3135 3137 3142 3152 3155 3159 3157 3158 3162 3166 3171 3172 3178 3184 3189 3193 3198 3202 3207 3211 3215 3218 3221 3224 3226 3228 3230 3231 3230 3229 3227 3226 3224 3221 3219 3216 3213 3210 3208
3122 3128 3130 3137 3135 3127 3128 3132 3132 3135 3141 3143 3140 3139 3148 3151 3154 3152 3157 3162 3166 3170 3175 3180 3185 3191 3195 3200 3204 3209 3213 3216 3220 3223 3225 3227 3229 3230 3230 3228 3227 3225 3223 3221 3218 3215 3212 3209 3207
3117 3117 3126 3127 3124 3126 3130 3132 3132 3134 3136 3137 3137 3137 3139 3143 3148 3150 3153 3158 3163 3166 3170 3176 3182 3187 3192 3198 3202 3206 3211 3215 3219 3222 3225 3227 3228 3228 3228 3227 3227 3224 3222 3219 3217 3215 3211 3208 3206
3108 3117 3119 3118 3121 3125 3123 3125 3124 3128 3134 3132 3135 3137 3137 3138 3144 3146 3149 3153 3160 3164 3168 3173 3179 3184 3190 3195 3200 3204 3209 3213 3217 3220 3223 3226 3227 3227 3227 3226 3226 3224 3221 3219 3216 3213 3210 3206 3205
3103 3105 3108 3113 3114 3115 3122 3118 3117 3123 3127 3128 3131 3128 3132 3132 3137 3140 3144 3149 3155 3160 3164 3168 3174 3179 3184 3191 3197 3201 3207 3211 3215 3218 3221 3224 3226 3226 3226 3225 3224 3222 3220 3218 3214 3212 3209 3205 3203
3097 3099 3103 3105 3107 3108 3111 3114 3114 3116 3121 3122 3127 3121 3126 3129 3132 3137 3140 3143 3149 3154 3159 3163 3170 3175 3181 3187 3193 3198 3203 3208 3212 3216 3219 3222 3223 3224 3224 3223 3222 3221 3219 3216 3212 3209 3206 3204 3202